OBJECT B

Satellite information

Favourite Embed

Satellite Type and Status

UNKNOWNIN ORBIT

Key statistics

Satellite OBJECT B at a glance.

Uptime

2383

Days in orbit

Revolutions

≈ 15.2

Per day

Orbit

LEO

Low Earth Orbit

Inclination

45.0

Latest

Satellite identification and parameters

Extended collection of information and parameters for OBJECT B.

Object identification

Identified? True

Debris? False

Object name: OBJECT B

International designator: 2019-032B

Object number (NORAD): 44311

Object ID (CCSDS): 44311

Country: PEOPLES REPUBLIC OF CHINA (PRC)

Current information (Y/N): Y

RCS size: MEDIUM

Orbital parameters

Period: 94.546 minutes

Inclination: 44.9749 deg

SMA: 6874.715 km

Apoapsis: 516.477 km

Periapsis: 476.683 km

RAAN: 307.8113 deg

Eccentricy: 0.00289425

Argument of periapsis: 336.9728 deg

Mean anomaly: 22.9854 deg

Mean motion: 15.23073032 rev/day

Mean motion (dot): 0.00019677 rev/day2

B* drag term: 0.0008204342 1/REarth

Two-line elements (TLE)

Creation date: Dec. 12, 2025, 10:14 a.m.

Reference frame: TEME

Reference center: EARTH

Epoch: Dec. 12, 2025, 6:41 a.m. UTC

TLE line 0: 0 OBJECT B

TLE line 1: 1 44311U 19032B 25346.27849289 .00019677 00000-0 82043-3 0 9997

TLE line 2: 2 44311 44.9749 307.8113 0028943 336.9728 22.9854 15.23073032359204

Live tracking on map

Real-time ground track for satellite OBJECT B.

In-orbit conjunctions

There are no conjunctions computed for OBJECT B, at the moment. Check back to stay up to date, as we update our databases every day.

Go to all conjunctions

Associated space launch

The first sea launch of Long March 11 rocket. It carries 7 satellites, which include a new high-resolution Earth observation satellite Jilin-1 and several test satellites, verifying such technologies as sea surface wind measuring and satellite interlink communication.

OBJECT B was lifted into orbit during the mission ‘Long March 11 | Jilin-1 & others’, on board a Long March 11 space rocket.

The launch took place on June 5, 2019, 4:06 a.m. from Tai Rui mobile launch platform.

For more information about the launch, click the button.

Launch to space Long March 11 | Jilin-1 & others
Long March 11 | Jilin-1 & others

Agency: N/A

Status: Launch Successful

Launch date: June 5, 2019, 4:06 a.m. UTC

Rocket: Long March 11

Launch pad: Tai Rui mobile launch platform

Location: Sea Launch

...

Latest news about this satellite

There are no fresh news available about this satellite. Check back as we update our databases every day.


Newsletter sign-up

Weekly statistics, charts and insights to help you stay on top of the space industry.